Please be sure to check the latest weather conditions by clicking the link and viewing our local weather information!

Check Weather

Welcome to Lakeway Airpark (3R9)

FromTheAir

We’re a community airpark nestled within the town of Lakeway, Texas (17 miles northwest of downtown Austin).

Lakeway Airpark, Inc. was formed by Lakeway residents and interested parties to own and manage Lakeway Airpark (3R9).

The Airpark is a privately owned not for profit public use airport for residents and guests of Lakeway. No public funds are used and the airport is supported by fees and fuel sales at the airport.

Lakeway Airpark is an unmanned facility open for use from Sunrise to Sunset seven days a week. Takeoffs and landings are not permitted at night, between Sunset and Sunrise, by City Ordinance.

Quick Weather Info

Available data for KAUS from the past 2 hours

METAR
KAUS 242353Z 11005KT 10SM CLR 25/16 A3008 RMK AO2 SLP180 T02500161 10294 20250 55002
KAUS 242253Z 08004KT 10SM FEW055 28/15 A3008 RMK AO2 SLP178 T02830150
TAF
KAUS 242320Z 2500/2606 15005KT P6SM FEW050 FM250600 21003KT P6SM FEW050 FM252200 18005KT P6SM SKC